Content
SEND FEEDBACK

Daily
Averages
Monthly
Summary
France

CANNES, FRANCE


Home > Europe > France
Elevation: 30 feet     Latitude: 43 33N     Longitude: 006 57E

WEATHER
 
SELECT A DAY
Number of Records: 114,583;   Date Range: 7/1/96 - 11/22/14
 
SHARE

PRINT THIS DATA

[ ← Previous Day ]
WEATHER ALMANAC - MARCH 25, 2013
[ Next Day → ]
[ °C ]   °F
Weather ElementAverageHighLow
Temperature52.6 °F60.8 °F (10:30 am)46.4 °F (10:30 pm)
Dewpoint46.5 °F50 °F (3:00 pm)42.8 °F (1:00 pm)
Humidity80.6 %93 % (12:30 am)55 % (1:00 pm)
Barometer29.45 in29.47 in (12:30 am)29.44 in (3:30 am)
Wind Speed2.8 mph8.1 mph (3:00 pm)
Weather ElementAverage
Visibility6.2 mi
Wind DirectionNE (49.4 °)

Weather ElementTotal
Precipitation---
Heating Degree Days11.4 (Base 65)
Growing Degree Days3.6 (Base 50)
Averaged from 47 records on March 25, 2013
WEATHER CONDITIONS BREAKOUT
WIND DIRECTION BREAKOUT
WEATHER BY HOUR - MARCH 25, 2013
[ °C ]   °F
Local TimeTemperatureDewpointHumidityBarometerVisibilityWind DirectionWind SpeedGust SpeedPrecipitationEventsConditions
12:30 AM48.2 °F46.4 °F93 %29.47 in6.2 miCalmOvercast
1:00 AM48.2 °F46.4 °F93 %29.47 in6.2 miCalmOvercast
1:30 AM48.2 °F46.4 °F93 %29.47 in6.2 miVariable2.3 mphOvercast
2:00 AM48.2 °F46.4 °F93 %29.47 in6.2 miNorth (350°)3.5 mphOvercast
2:30 AM48.2 °F46.4 °F93 %29.47 in6.2 miVariable2.3 mphOvercast
3:00 AM48.2 °F46.4 °F93 %29.47 in6.2 miCalmOvercast
3:30 AM48.2 °F46.4 °F93 %29.44 in6.2 miCalmOvercast
4:00 AM48.2 °F46.4 °F93 %29.44 in6.2 miCalmOvercast
4:30 AM48.2 °F46.4 °F93 %29.44 in6.2 miVariable1.2 mphOvercast
5:00 AM48.2 °F46.4 °F93 %29.44 in6.2 miCalmOvercast
5:30 AM48.2 °F46.4 °F93 %29.44 in6.2 miCalmOvercast
6:00 AM48.2 °F46.4 °F93 %29.44 in6.2 miCalmOvercast
6:30 AM48.2 °F46.4 °F93 %29.44 in6.2 miCalmOvercast
7:00 AM48.2 °F46.4 °F93 %29.44 in6.2 miVariable1.2 mphOvercast
7:30 AM50.0 °F46.4 °F87 %29.44 in6.2 miCalmOvercast
8:00 AM50.0 °F46.4 °F87 %29.44 in6.2 miCalmOvercast
8:30 AM51.8 °F46.4 °F82 %29.44 in6.2 miVariable2.3 mphOvercast
9:00 AM53.6 °F46.4 °F77 %29.44 in6.2 miVariable2.3 mphOvercast
9:30 AM55.4 °F46.4 °F72 %29.44 in6.2 miCalmMostly Cloudy
10:00 AM57.2 °F48.2 °F72 %29.44 in6.2 miVariable2.3 mphMostly Cloudy
10:30 AM60.8 °F48.2 °F63 %29.44 in6.2 miVariable3.5 mphMostly Cloudy
11:00 AM59.0 °F48.2 °F67 %29.44 in6.2 miSouth (170°)6.9 mphMostly Cloudy
11:30 AM57.2 °F46.4 °F67 %29.47 in6.2 miSouth (180°)6.9 mphOvercast
12:00 PM57.2 °F46.4 °F67 %29.47 in6.2 miSouth (170°)4.6 mphOvercast
12:30 PM59.0 °F46.4 °F63 %29.44 in6.2 miVariable2.3 mphOvercast
1:00 PM59.0 °F42.8 °F55 %29.44 in6.2 miSSE (150°)4.6 mphOvercast
1:30 PM59.0 °F44.6 °F59 %29.44 in6.2 miSSE (160°)4.6 mphOvercast
2:00 PM59.0 °F48.2 °F67 %29.44 in6.2 miSSE (150°)6.9 mphOvercast
2:30 PM57.2 °F48.2 °F72 %29.44 in6.2 miSSE (160°)6.9 mphMostly Cloudy
3:00 PM57.2 °F50.0 °F77 %29.44 in6.2 miSSE (150°)8.1 mphOvercast
3:30 PM55.4 °F48.2 °F77 %29.44 in6.2 miSSE (160°)8.1 mphOvercast
4:00 PM57.2 °F48.2 °F72 %29.44 in6.2 miSouth (170°)8.1 mphScattered Clouds
4:30 PM59.0 °F50.0 °F72 %29.44 in6.2 miSouth (180°)8.1 mphMostly Cloudy
5:00 PM57.2 °F48.2 °F72 %29.44 in6.2 miSouth (170°)5.8 mphMostly Cloudy
5:30 PM57.2 °F46.4 °F67 %29.44 in6.2 miVariable3.5 mphMostly Cloudy
6:00 PM57.2 °F44.6 °F63 %29.44 in6.2 miVariable2.3 mphPartly Cloudy
6:30 PM55.4 °F46.4 °F72 %29.44 in6.2 miVariable2.3 mph
7:00 PM55.4 °F46.4 °F72 %29.47 in6.2 miVariable2.3 mph
7:30 PM51.8 °F46.4 °F82 %29.47 in6.2 miVariable3.5 mph
8:00 PM51.8 °F46.4 °F82 %29.47 in6.2 miVariable3.5 mph
8:30 PM50.0 °F46.4 °F87 %29.47 in6.2 miVariable3.5 mph
9:00 PM50.0 °F46.4 °F87 %29.47 in6.2 miVariable3.5 mph
9:30 PM48.2 °F44.6 °F87 %29.47 in6.2 miVariable2.3 mph
10:00 PM48.2 °F44.6 °F87 %29.47 in6.2 miVariable2.3 mphPartly Cloudy
10:30 PM46.4 °F44.6 °F93 %29.47 in6.2 miVariable1.2 mphScattered Clouds
11:00 PM46.4 °F44.6 °F93 %29.47 in6.2 miCalmPartly Cloudy
11:30 PM48.2 °F44.6 °F87 %29.47 in6.2 miCalmOvercast
Hourly data recorded from LFMD, located miles away from Cannes, France







STORIES FROM OUR PARTNERS